Tracking 19903 objects as of 16-Oct-2019
HD Live streaming from Space Station
objects crossing your sky now

COSMOS 1275 DEB

Track COSMOS 1275 DEB now!
10-day predictions


NORAD ID: 13816
Int'l Code: 1981-053HP
Perigee: 856.7 km
Apogee: 1,085.0 km
Inclination: 83.0 °
Period: 104.3 minutes
Semi major axis: 7341 km
RCS: 0.0104 m2 (small)
Launch date: June 4, 1981
Source: Commonwealth of Independent States (former USSR) (CIS)
Launch site: PLESETSK MISSILE AND SPACE COMPLEX (PKMTR)

Note: This is SATELLITE DEBRIS
aabbcc
Your satellite tracking list
Your tracking list is empty




NASA's NSSDC Master Catalog

Two Line Element Set (TLE):
1 13816U 81053HL  19288.90365191 +.00000214 +00000-0 +17573-3 0  9991
2 13816 082.9858 090.9846 0155465 246.6651 236.9497 13.80048746823524
Source of the keplerian elements: AFSPC